QPF
0.04 0.03 0.03 0.04 0.07 0.05 0.05 0.06 0.06 0.04 0.02 0.00 0.00 0.00 0.00 0.01 0.01 0.01 0.01 0.02 0.02 0.03 0.03 0.03 0.03 0.04 0.05 0.05 0.04 0.04 0.04 0.04 0.04 0.06 0.06 0.05 0.04 0.03
0.03 0.03 0.02 0.04 0.05 0.05 0.05 0.04 0.05 0.04 0.02 0.00 0.00 0.00 0.01 0.02 0.03 0.02 0.02 0.02 0.03 0.04 0.05 0.04 0.03 0.02 0.03 0.03 0.04 0.04 0.04 0.03 0.03 0.03 0.04 0.06 0.06 0.05
0.03 0.02 0.02 0.03 0.05 0.06 0.04 0.03 0.04 0.04 0.03 0.00 0.00 0.01 0.01 0.04 0.06 0.02 0.01 0.01 0.02 0.03 0.04 0.05 0.04 0.03 0.02 0.03 0.03 0.03 0.04 0.04 0.03 0.03 0.03 0.03 0.04 0.06
0.03 0.02 0.02 0.03 0.03 0.04 0.02 0.02 0.02 0.03 0.03 0.01 0.00 0.01 0.02 0.04 0.05 0.04 0.03 0.02 0.03 0.03 0.03 0.03 0.04 0.03 0.02 0.02 0.02 0.02 0.02 0.03 0.03 0.03 0.03 0.03 0.03 0.03
0.02 0.02 0.02 0.03 0.02 0.02 0.02 0.02 0.01 0.02 0.02 0.01 0.01 0.01 0.02 0.03 0.04 0.04 0.04 0.03 0.02 0.02 0.02 0.02 0.02 0.02 0.02 0.02 0.03 0.02 0.02 0.02 0.02 0.03 0.03 0.03 0.03 0.02
0.03 0.03 0.03 0.03 0.02 0.02 0.02 0.02 0.02 0.01 0.01 0.01 0.01 0.01 0.01 0.02 0.03 0.04 0.03 0.02 0.02 0.02 0.02 0.02 0.02 0.02 0.02 0.02 0.02 0.02 0.02 0.02 0.02 0.02 0.02 0.03 0.03 0.03
0.01 0.02 0.02 0.02 0.02 0.02 0.02 0.03 0.02 0.01 0.01 0.01 0.01 0.01 0.01 0.01 0.03 0.04 0.04 0.03 0.03 0.03 0.02 0.01 0.01 0.01 0.01 0.01 0.02 0.02 0.02 0.02 0.02 0.03 0.04 0.05 0.06 0.06
0.02 0.02 0.02 0.03 0.03 0.03 0.04 0.04 0.03 0.02 0.01 0.02 0.02 0.01 0.01 0.01 0.02 0.04 0.04 0.03 0.03 0.03 0.02 0.01 0.01 0.01 0.01 0.01 0.01 0.02 0.02 0.02 0.03 0.04 0.04 0.05 0.05 0.04
0.04 0.04 0.03 0.03 0.03 0.02 0.03 0.02 0.02 0.02 0.02 0.02 0.02 0.01 0.01 0.01 0.02 0.02 0.03 0.02 0.02 0.02 0.03 0.02 0.02 0.01 0.01 0.01 0.01 0.02 0.02 0.03 0.04 0.05 0.05 0.05 0.05 0.04
0.05 0.06 0.06 0.06 0.06 0.05 0.05 0.04 0.03 0.02 0.02 0.02 0.01 0.01 0.02 0.02 0.03 0.03 0.03 0.03 0.02 0.02 0.02 0.02 0.02 0.02 0.02 0.02 0.02 0.03 0.04 0.05 0.05 0.06 0.06 0.06 0.06 0.06
0.04 0.05 0.05 0.04 0.05 0.05 0.04 0.03 0.02 0.02 0.02 0.02 0.02 0.02 0.02 0.03 0.02 0.02 0.02 0.03 0.02 0.02 0.02 0.02 0.02 0.02 0.02 0.03 0.03 0.03 0.04 0.04 0.04 0.04 0.04 0.06 0.08 0.08
0.04 0.04 0.04 0.03 0.04 0.05 0.04 0.03 0.03 0.03 0.03 0.03 0.02 0.02 0.02 0.03 0.03 0.03 0.03 0.04 0.02 0.01 0.02 0.02 0.01 0.02 0.02 0.02 0.03 0.03 0.03 0.03 0.03 0.03 0.03 0.04 0.05 0.04
0.04 0.03 0.03 0.04 0.04 0.04 0.04 0.04 0.04 0.04 0.04 0.03 0.03 0.02 0.02 0.03 0.03 0.04 0.04 0.04 0.04 0.03 0.02 0.02 0.02 0.02 0.01 0.01 0.02 0.02 0.02 0.04 0.04 0.03 0.03 0.03 0.03 0.03
0.05 0.04 0.04 0.04 0.04 0.05 0.06 0.05 0.05 0.04 0.03 0.03 0.03 0.03 0.03 0.03 0.04 0.05 0.05 0.04 0.04 0.05 0.04 0.03 0.03 0.02 0.02 0.01 0.01 0.01 0.01 0.02 0.03 0.03 0.03 0.03 0.02 0.03
0.04 0.05 0.05 0.05 0.05 0.05 0.06 0.07 0.06 0.04 0.04 0.04 0.04 0.03 0.03 0.02 0.02 0.03 0.05 0.05 0.05 0.05 0.05 0.06 0.05 0.05 0.04 0.03 0.02 0.02 0.02 0.02 0.03 0.03 0.03 0.02 0.03 0.03
0.05 0.05 0.05 0.04 0.05 0.06 0.08 0.10 0.09 0.06 0.05 0.03 0.02 0.02 0.02 0.02 0.02 0.02 0.02 0.04 0.05 0.04 0.05 0.05 0.05 0.05 0.07 0.07 0.05 0.03 0.02 0.02 0.04 0.04 0.04 0.03 0.03 0.03
0.08 0.07 0.06 0.06 0.06 0.06 0.06 0.07 0.06 0.05 0.04 0.03 0.03 0.02 0.02 0.02 0.02 0.03 0.02 0.02 0.03 0.03 0.04 0.05 0.05 0.05 0.06 0.06 0.05 0.03 0.02 0.02 0.04 0.05 0.06 0.04 0.03 0.02
0.12 0.11 0.10 0.08 0.07 0.06 0.05 0.04 0.03 0.03 0.03 0.03 0.03 0.02 0.02 0.02 0.02 0.02 0.03 0.03 0.04 0.05 0.05 0.05 0.06 0.07 0.06 0.05 0.04 0.03 0.02 0.03 0.04 0.04 0.05 0.05 0.03 0.02
0.07 0.07 0.08 0.07 0.05 0.05 0.04 0.03 0.03 0.03 0.02 0.02 0.02 0.02 0.02 0.03 0.03 0.03 0.04 0.04 0.05 0.06 0.06 0.06 0.07 0.06 0.05 0.05 0.04 0.03 0.03 0.03 0.03 0.04 0.03 0.03 0.03 0.03
0.06 0.05 0.04 0.05 0.05 0.05 0.06 0.05 0.05 0.04 0.03 0.03 0.03 0.03 0.03 0.03 0.04 0.05 0.05 0.05 0.05 0.05 0.05 0.04 0.05 0.07 0.07 0.06 0.04 0.03 0.04 0.04 0.04 0.04 0.03 0.03 0.03 0.03
0.05 0.05 0.05 0.05 0.04 0.04 0.03 0.04 0.04 0.04 0.04 0.03 0.03 0.03 0.03 0.03 0.04 0.05 0.05 0.05 0.05 0.04 0.04 0.04 0.05 0.07 0.06 0.05 0.04 0.03 0.03 0.04 0.05 0.04 0.03 0.03 0.03 0.03
0.06 0.05 0.05 0.05 0.04 0.03 0.03 0.03 0.03 0.03 0.04 0.03 0.03 0.03 0.03 0.03 0.04 0.04 0.05 0.06 0.07 0.06 0.07 0.07 0.06 0.06 0.05 0.04 0.03 0.03 0.03 0.02 0.03 0.03 0.03 0.03 0.03 0.03
0.05 0.06 0.05 0.05 0.04 0.04 0.04 0.04 0.04 0.04 0.04 0.04 0.04 0.04 0.04 0.04 0.04 0.04 0.05 0.07 0.08 0.08 0.07 0.07 0.05 0.05 0.05 0.04 0.03 0.03 0.02 0.02 0.02 0.02 0.02 0.02 0.03 0.02
MSLP
1010.60 1010.86 1011.15 1011.44 1011.72 1011.98 1012.20 1012.38 1012.54 1012.67 1012.80 1012.93 1013.07 1013.23 1013.40 1013.59 1013.79 1013.99 1014.19 1014.39 1014.58 1014.76 1014.94 1015.11 1015.27 1015.43 1015.59 1015.73 1015.88 1016.02 1016.15 1016.28 1016.38 1016.48 1016.55 1016.59 1016.62 1016.63
1010.16 1010.39 1010.64 1010.91 1011.17 1011.42 1011.65 1011.86 1012.06 1012.24 1012.41 1012.58 1012.76 1012.95 1013.15 1013.36 1013.58 1013.81 1014.04 1014.28 1014.53 1014.76 1015.00 1015.22 1015.43 1015.62 1015.79 1015.95 1016.09 1016.22 1016.34 1016.45 1016.55 1016.64 1016.72 1016.77 1016.82 1016.84
1009.63 1009.83 1010.04 1010.28 1010.52 1010.77 1011.02 1011.26 1011.50 1011.72 1011.95 1012.17 1012.39 1012.61 1012.84 1013.08 1013.33 1013.59 1013.86 1014.14 1014.44 1014.73 1015.02 1015.29 1015.54 1015.76 1015.95 1016.12 1016.26 1016.38 1016.49 1016.60 1016.69 1016.79 1016.88 1016.96 1017.03 1017.07
1008.95 1009.12 1009.31 1009.52 1009.76 1010.01 1010.28 1010.56 1010.84 1011.13 1011.41 1011.68 1011.95 1012.21 1012.48 1012.74 1013.02 1013.31 1013.62 1013.94 1014.27 1014.61 1014.94 1015.25 1015.53 1015.78 1015.99 1016.16 1016.30 1016.42 1016.53 1016.63 1016.74 1016.85 1016.97 1017.08 1017.18 1017.27
1008.10 1008.24 1008.40 1008.60 1008.84 1009.11 1009.41 1009.74 1010.08 1010.43 1010.77 1011.11 1011.43 1011.74 1012.03 1012.33 1012.63 1012.95 1013.28 1013.62 1013.99 1014.35 1014.71 1015.05 1015.35 1015.62 1015.84 1016.01 1016.16 1016.28 1016.39 1016.51 1016.63 1016.77 1016.91 1017.06 1017.21 1017.34
1007.09 1007.19 1007.34 1007.52 1007.77 1008.06 1008.40 1008.79 1009.19 1009.61 1010.02 1010.42 1010.80 1011.15 1011.49 1011.81 1012.14 1012.47 1012.82 1013.18 1013.56 1013.94 1014.31 1014.66 1014.97 1015.24 1015.47 1015.65 1015.79 1015.92 1016.04 1016.17 1016.32 1016.48 1016.67 1016.86 1017.05 1017.23
1005.95 1006.02 1006.13 1006.31 1006.56 1006.87 1007.26 1007.69 1008.16 1008.65 1009.13 1009.60 1010.04 1010.44 1010.82 1011.17 1011.52 1011.87 1012.23 1012.60 1012.98 1013.36 1013.73 1014.08 1014.40 1014.67 1014.89 1015.08 1015.23 1015.36 1015.49 1015.64 1015.81 1016.00 1016.21 1016.44 1016.67 1016.89
1004.77 1004.78 1004.86 1005.01 1005.25 1005.58 1006.00 1006.48 1007.01 1007.56 1008.11 1008.64 1009.14 1009.60 1010.02 1010.41 1010.78 1011.15 1011.52 1011.89 1012.28 1012.66 1013.03 1013.37 1013.68 1013.94 1014.17 1014.35 1014.50 1014.64 1014.78 1014.94 1015.12 1015.33 1015.57 1015.83 1016.09 1016.34
1003.60 1003.55 1003.58 1003.69 1003.91 1004.24 1004.67 1005.19 1005.76 1006.36 1006.97 1007.57 1008.13 1008.64 1009.12 1009.55 1009.96 1010.35 1010.73 1011.12 1011.50 1011.88 1012.25 1012.59 1012.89 1013.15 1013.36 1013.54 1013.69 1013.83 1013.98 1014.14 1014.33 1014.55 1014.80 1015.07 1015.34 1015.62
1002.52 1002.39 1002.36 1002.42 1002.61 1002.92 1003.35 1003.87 1004.47 1005.12 1005.78 1006.43 1007.05 1007.63 1008.16 1008.64 1009.09 1009.52 1009.93 1010.33 1010.72 1011.11 1011.47 1011.80 1012.10 1012.35 1012.56 1012.74 1012.88 1013.02 1013.16 1013.32 1013.51 1013.73 1013.98 1014.24 1014.52 1014.80
1001.53 1001.34 1001.23 1001.24 1001.38 1001.66 1002.08 1002.61 1003.22 1003.90 1004.61 1005.31 1005.99 1006.62 1007.21 1007.75 1008.25 1008.71 1009.16 1009.58 1009.99 1010.38 1010.75 1011.08 1011.38 1011.63 1011.83 1012.00 1012.15 1012.28 1012.42 1012.57 1012.75 1012.95 1013.19 1013.45 1013.71 1013.98
1000.64 1000.38 1000.22 1000.17 1000.27 1000.52 1000.92 1001.44 1002.07 1002.77 1003.51 1004.26 1004.99 1005.68 1006.33 1006.92 1007.47 1007.98 1008.46 1008.92 1009.34 1009.75 1010.12 1010.46 1010.75 1011.00 1011.21 1011.38 1011.52 1011.65 1011.78 1011.93 1012.09 1012.29 1012.51 1012.75 1013.00 1013.26
999.80 999.50 999.30 999.22 999.28 999.51 999.90 1000.42 1001.06 1001.78 1002.55 1003.34 1004.12 1004.86 1005.56 1006.20 1006.80 1007.35 1007.86 1008.34 1008.78 1009.20 1009.58 1009.93 1010.23 1010.49 1010.70 1010.87 1011.02 1011.15 1011.28 1011.42 1011.58 1011.76 1011.97 1012.19 1012.43 1012.67
998.96 998.65 998.43 998.34 998.40 998.63 999.02 999.55 1000.20 1000.95 1001.75 1002.58 1003.39 1004.18 1004.91 1005.59 1006.22 1006.80 1007.34 1007.83 1008.30 1008.72 1009.12 1009.47 1009.78 1010.05 1010.28 1010.46 1010.62 1010.77 1010.90 1011.05 1011.21 1011.38 1011.58 1011.79 1012.01 1012.24
998.10 997.81 997.60 997.53 997.61 997.86 998.27 998.82 999.50 1000.28 1001.11 1001.96 1002.81 1003.62 1004.38 1005.09 1005.74 1006.33 1006.88 1007.38 1007.85 1008.29 1008.69 1009.06 1009.38 1009.67 1009.92 1010.13 1010.31 1010.48 1010.63 1010.79 1010.95 1011.13 1011.32 1011.53 1011.73 1011.94
997.21 996.95 996.80 996.78 996.90 997.19 997.64 998.23 998.95 999.75 1000.61 1001.48 1002.35 1003.18 1003.95 1004.67 1005.32 1005.92 1006.47 1006.97 1007.44 1007.88 1008.29 1008.67 1009.02 1009.33 1009.61 1009.85 1010.07 1010.26 1010.44 1010.62 1010.79 1010.98 1011.16 1011.36 1011.55 1011.74
996.33 996.14 996.05 996.09 996.28 996.63 997.13 997.77 998.52 999.35 1000.23 1001.12 1002.00 1002.83 1003.61 1004.32 1004.97 1005.56 1006.10 1006.60 1007.06 1007.51 1007.92 1008.32 1008.69 1009.03 1009.34 1009.62 1009.87 1010.10 1010.31 1010.50 1010.69 1010.88 1011.06 1011.24 1011.41 1011.57
995.55 995.43 995.42 995.54 995.80 996.21 996.77 997.45 998.23 999.09 999.98 1000.88 1001.75 1002.58 1003.34 1004.04 1004.68 1005.25 1005.78 1006.27 1006.74 1007.18 1007.61 1008.02 1008.42 1008.79 1009.13 1009.45 1009.74 1009.99 1010.23 1010.44 1010.63 1010.81 1010.98 1011.14 1011.29 1011.41
994.97 994.93 995.00 995.19 995.52 995.99 996.59 997.31 998.11 998.97 999.87 1000.76 1001.61 1002.42 1003.17 1003.85 1004.47 1005.03 1005.54 1006.03 1006.49 1006.94 1007.38 1007.81 1008.22 1008.62 1009.00 1009.34 1009.66 1009.94 1010.18 1010.40 1010.59 1010.76 1010.91 1011.03 1011.14 1011.23
994.72 994.75 994.89 995.14 995.52 996.03 996.65 997.38 998.18 999.04 999.91 1000.77 1001.61 1002.39 1003.11 1003.77 1004.36 1004.90 1005.41 1005.88 1006.34 1006.80 1007.25 1007.69 1008.13 1008.55 1008.94 1009.31 1009.63 1009.92 1010.17 1010.38 1010.55 1010.70 1010.82 1010.91 1010.98 1011.03
994.87 994.97 995.16 995.45 995.86 996.38 997.00 997.71 998.49 999.30 1000.13 1000.95 1001.74 1002.48 1003.17 1003.80 1004.37 1004.89 1005.38 1005.85 1006.31 1006.76 1007.22 1007.67 1008.12 1008.54 1008.95 1009.32 1009.65 1009.93 1010.17 1010.36 1010.51 1010.63 1010.71 1010.77 1010.80 1010.81
995.47 995.62 995.85 996.16 996.57 997.07 997.66 998.32 999.03 999.78 1000.55 1001.30 1002.03 1002.72 1003.35 1003.94 1004.48 1004.98 1005.46 1005.91 1006.37 1006.81 1007.27 1007.71 1008.16 1008.58 1008.98 1009.34 1009.66 1009.93 1010.15 1010.32 1010.44 1010.52 1010.58 1010.60 1010.61 1010.60
996.50 996.68 996.93 997.24 997.62 998.07 998.60 999.18 999.81 1000.47 1001.14 1001.81 1002.45 1003.07 1003.64 1004.18 1004.68 1005.15 1005.59 1006.03 1006.46 1006.90 1007.34 1007.77 1008.20 1008.61 1008.99 1009.34 1009.63 1009.88 1010.08 1010.22 1010.32 1010.38 1010.41 1010.42 1010.41 1010.39
Thickness
5737 5735 5734 5733 5732 5731 5730 5728 5723 5718 5719 5722 5724 5726 5725 5724 5723 5721 5720 5719 5718 5717 5716 5714 5713 5711 5709 5708 5706 5704 5703 5701 5699 5698 5696 5694 5692 5689
5736 5734 5732 5732 5731 5730 5729 5727 5725 5722 5719 5722 5723 5725 5724 5724 5722 5720 5719 5717 5716 5715 5714 5713 5711 5709 5708 5706 5704 5703 5701 5699 5697 5695 5693 5691 5688 5685
5734 5733 5731 5730 5729 5728 5727 5725 5724 5722 5719 5720 5721 5722 5721 5721 5720 5719 5717 5716 5715 5714 5712 5711 5709 5707 5706 5704 5702 5700 5699 5696 5694 5692 5689 5687 5685 5682
5732 5730 5729 5728 5726 5726 5724 5723 5722 5721 5719 5717 5718 5718 5718 5718 5717 5715 5715 5714 5713 5712 5711 5709 5708 5706 5704 5702 5700 5698 5696 5694 5691 5689 5686 5684 5681 5679
5730 5729 5727 5726 5724 5723 5722 5721 5720 5720 5718 5715 5715 5714 5714 5714 5712 5711 5710 5709 5709 5709 5708 5707 5705 5704 5702 5700 5698 5696 5693 5691 5688 5686 5683 5681 5678 5676
5729 5727 5726 5724 5723 5721 5720 5719 5718 5716 5715 5713 5711 5710 5710 5709 5708 5706 5705 5704 5704 5705 5704 5703 5702 5701 5700 5698 5696 5694 5691 5688 5686 5683 5680 5678 5675 5673
5725 5725 5724 5723 5722 5720 5719 5717 5715 5713 5711 5709 5707 5706 5705 5704 5704 5703 5701 5700 5700 5699 5699 5699 5698 5698 5696 5695 5693 5691 5689 5686 5683 5681 5678 5676 5673 5670
5721 5721 5721 5720 5720 5718 5717 5716 5714 5711 5708 5706 5704 5703 5703 5702 5701 5699 5697 5695 5694 5696 5694 5694 5693 5693 5693 5691 5690 5689 5686 5684 5681 5679 5676 5674 5671 5667
5719 5718 5718 5718 5717 5715 5713 5712 5710 5709 5708 5706 5702 5701 5700 5700 5697 5694 5693 5692 5692 5693 5689 5689 5689 5688 5689 5688 5687 5685 5683 5681 5679 5676 5674 5671 5668 5665
5716 5715 5714 5713 5713 5711 5709 5706 5706 5705 5704 5703 5702 5701 5700 5698 5695 5693 5691 5688 5687 5686 5685 5684 5684 5683 5684 5683 5682 5681 5679 5677 5675 5673 5670 5667 5665 5662
5712 5712 5710 5709 5708 5706 5703 5701 5700 5700 5700 5699 5698 5696 5695 5693 5691 5687 5684 5682 5682 5682 5681 5679 5680 5678 5678 5678 5677 5676 5674 5672 5671 5669 5666 5663 5660 5656
5707 5706 5705 5704 5703 5700 5698 5696 5694 5695 5694 5693 5692 5691 5689 5688 5686 5683 5682 5678 5678 5678 5678 5675 5674 5672 5672 5673 5672 5670 5668 5666 5665 5663 5661 5658 5655 5651
5700 5701 5700 5698 5696 5694 5693 5692 5691 5689 5687 5686 5685 5685 5684 5683 5681 5679 5678 5676 5675 5675 5675 5672 5670 5667 5666 5665 5665 5664 5662 5660 5659 5657 5655 5653 5650 5647
5695 5695 5694 5692 5691 5689 5687 5687 5684 5682 5680 5679 5678 5678 5677 5676 5676 5675 5673 5672 5672 5672 5671 5668 5666 5663 5660 5658 5658 5657 5656 5654 5653 5651 5649 5647 5644 5641
5690 5689 5687 5685 5683 5682 5681 5679 5677 5675 5673 5672 5672 5671 5671 5670 5669 5668 5668 5667 5666 5665 5665 5663 5661 5659 5657 5655 5653 5651 5649 5648 5647 5645 5643 5641 5639 5636
5681 5681 5679 5677 5676 5675 5673 5672 5670 5668 5666 5665 5665 5664 5663 5662 5662 5661 5660 5659 5659 5659 5659 5657 5656 5653 5651 5650 5648 5646 5644 5643 5642 5640 5638 5636 5633 5632
5673 5672 5671 5669 5668 5667 5665 5664 5663 5661 5659 5658 5657 5656 5655 5655 5654 5653 5652 5652 5652 5652 5651 5650 5649 5647 5646 5644 5641 5640 5639 5637 5636 5634 5631 5630 5629 5627
5663 5664 5663 5661 5660 5660 5658 5657 5655 5654 5652 5651 5650 5648 5648 5648 5647 5646 5644 5644 5644 5645 5644 5642 5640 5638 5637 5636 5635 5634 5632 5631 5629 5627 5625 5624 5624 5623
5656 5656 5655 5654 5653 5652 5651 5649 5648 5646 5644 5643 5642 5641 5640 5640 5639 5639 5637 5637 5637 5637 5636 5635 5633 5632 5630 5630 5630 5626 5625 5623 5621 5619 5618 5618 5618 5618
5648 5648 5647 5646 5645 5644 5643 5641 5640 5638 5636 5634 5633 5633 5632 5632 5631 5631 5630 5630 5630 5629 5628 5627 5625 5625 5624 5623 5622 5620 5617 5616 5614 5613 5612 5611 5610 5609
5639 5639 5638 5637 5637 5636 5635 5634 5632 5631 5629 5628 5626 5625 5625 5624 5623 5623 5623 5621 5621 5621 5621 5621 5620 5618 5616 5614 5613 5612 5610 5608 5607 5606 5605 5603 5603 5602
5630 5629 5628 5628 5627 5626 5626 5624 5623 5623 5622 5620 5619 5617 5617 5617 5616 5615 5615 5614 5613 5613 5613 5613 5612 5610 5608 5607 5607 5605 5602 5600 5598 5597 5597 5597 5597 5597
5620 5620 5619 5618 5618 5617 5616 5616 5615 5614 5613 5612 5612 5610 5610 5609 5608 5608 5607 5606 5606 5605 5604 5603 5602 5602 5601 5600 5598 5597 5594 5592 5591 5589 5589 5589 5589 5589